Regional Weather Roundup
Issued by NWS Boston, MA

Home | Current Version | Previous Version | Text Only | Print | Product List | Glossary On
Versions: 1 2 3 4 5 6 7 8 9 10 11 12 13 14 15 16 17 18 19 20 21 22 23 24 25 26 27 28 29 30 31 32 33 34 35 36 37 38 39 40 41 42 43 44 45 46 47 48 49 50
000
ASUS41 KBOX 311410
RWRBOX

REGIONAL WEATHER ROUNDUP
NATIONAL WEATHER SERVICE TAUNTON MA
900 AM EST SAT JAN 31 2015

NOTE:  "FAIR" INDICATES FEW OR NO CLOUDS BELOW 12,000 FEET WITH NO
SIGNIFICANT WEATHER AND/OR OBSTRUCTIONS TO VISIBILITY.  THE FOLLOWING
OBSERVATION LOCATIONS DO NOT REPORT PRESENT WEATHER...PROVINCETOWN...
SMITHFIELD...BLOCK ISLAND...KEENE...AND OXFORD.

MAZALL-311500-
EASTERN MASSACHUSETTS

CITY           SKY/WX    TMP DP  RH WIND       PRES   REMARKS
BOSTON         CLOUDY    13  -1  54 NW23G37   29.81S WCI  -6
BEVERLY        CLOUDY     9  -4  55 NW20G37   29.80S WCI -10
LAWRENCE       CLOUDY     8  -4  58 NW14G24   29.86R WCI  -8
BEDFORD        CLOUDY    11  -4  51 NW17G28   29.85R WCI  -6
BLUE HILL        N/A     11  -3  53 NW25G44   29.75R WCI -10
NORWOOD        CLOUDY    14  -3  47 NW15G26   29.83S WCI  -1
MARSHFIELD     PTSUNNY   18   3  53 NW15G28   29.78S HAZE    WCI   3
PLYMOUTH       CLOUDY    15   1  53 NW24G35   29.76S WCI  -4
TAUNTON        MIX PCPN  15  -2  46 NW15G29   29.80R WCI   0
NEW BEDFORD    PTSUNNY   15  -2  46 NW16G31   29.78R WCI  -1
$$

MAZALL-311500-
CAPE COD AND THE ISLANDS

CITY           SKY/WX    TMP DP  RH WIND       PRES   REMARKS
FALMOUTH       PTSUNNY   14   5  67 NW17G32   29.73S WCI  -3
HYANNIS        LGT SNOW  16  11  80 NW17G30   29.69S VSB 1   WCI   0
CHATHAM        SNOW      19  14  81 NW20G38   29.69R VSB 1/2 WCI   3
PROVINCETOWN   PTSUNNY   19  12  73 NW36G45   29.73R WCI  -1
NANTUCKET      LGT SNOW  19  12  74 NW22G35   29.72R WCI   2
MARTHAS VNYRD  CLOUDY    16   4  59 NW29G41   29.74S WCI  -4
$$

MAZALL-311500-
CENTRAL AND WESTERN MASSACHUSETTS

CITY           SKY/WX    TMP DP  RH WIND       PRES   REMARKS
WORCESTER      SUNNY    N/A N/A N/A NW24G39   29.81R
FITCHBURG      NOT AVBL
ORANGE         SUNNY      6  -9  50 NW17      29.95S WCI -13
SPRINGFIELD    SUNNY      7 -10  44 NW15      29.98S WCI -10
WESTFIELD      SUNNY      7  -9  48 NW20G30   29.99F WCI -13
NORTH ADAMS    MOSUNNY    1 -12  54 W7G17     30.09R WCI -12
PITTSFIELD     SUNNY     -3 -12  65 NW13G21   30.00S WCI -22
$$

RIZALL-311500-
RHODE ISLAND

CITY           SKY/WX    TMP DP  RH WIND       PRES   REMARKS
PROVIDENCE     PTSUNNY   12  -6  44 NW17G31   29.86R WCI  -5
NEWPORT        CLOUDY    13  -2  51 NW26G39   29.82R WCI  -7
BLOCK ISLAND   PTSUNNY   16  -2  45 NW25G35   29.84S WCI  -3
SMITHFIELD     SUNNY     10  -6  48 NW23G32   29.81S WCI -10
WESTERLY       MOSUNNY   10  -6  48 NW26G37   29.87S WCI -11
$$

CTZALL-311500-
CONNECTICUT

CITY           SKY/WX    TMP DP  RH WIND       PRES   REMARKS
BRADLEY INTL   MOSUNNY    7 -10  46 N15G23    30.01S WCI -10
HARTFORD       SUNNY      7 -10  46 N21G28    30.03S WCI -13
BRIDGEPORT     SUNNY     12  -9  38 N20G38    30.03R WCI  -6
DANBURY        SUNNY     10 -12  36 NW14G33   30.04R WCI  -6
GROTON         SUNNY      9  -6  50 NW25G40   29.91R WCI -12
NEW HAVEN      SUNNY     12 -10  36 NW17G33   30.01R WCI  -5
CHESTER        FAIR       9  -9  43 NW20G36   29.94R WCI -11
MERIDEN        SUNNY     10 -12  36 NW18G29   30.02S WCI  -8
WILLIMANTIC    SUNNY     10  -8  44 NW15G28   29.95R WCI  -7
OXFORD         SUNNY      7 -15  36 NW15G26   29.97R WCI -11
$$

MEZ002-015-021-024-NHZ003-005-008-011-012-014-VTZ005-008-311500-
NORTHERN NEW ENGLAND

CITY           SKY/WX    TMP DP  RH WIND       PRES   REMARKS
PORTLAND ME    CLOUDY    13   1  59 NW22G38   29.76S WCI  -6
BANGOR ME      LGT SNOW  12   8  84 NW22G31   29.67F VSB 3/4 WCI  -7
CONCORD NH     CLOUDY     4  -8  57 NW15G29   29.89S WCI -14
MANCHESTER NH  PTSUNNY    5  -7  57 NW18G33   29.86S WCI -15
NASHUA NH      MOSUNNY    9  -6  52 NW18G32   29.88R HAZE    WCI -10
PORTSMOUTH NH  CLOUDY     8  -3  59 W22G29    29.78S WCI -12
JAFFREY NH     MIX PCPN   3 -10  54 N10G18    29.86F WCI -12
KEENE NH       SUNNY      5  -8  56 N21G26    29.96S WCI -16
BURLINGTON VT  MOSUNNY   -4 -15  59 N9        30.20S WCI -20
MT. WASHINGTON PTSUNNY   -6 -15  65 N60G71      N/A  WCI -41
$$

NYZ052-076-311500-
EASTERN NEW YORK

CITY           SKY/WX    TMP DP  RH WIND       PRES   REMARKS
ALBANY         SUNNY      2 -12  52 NW16G25   30.19S WCI -18
NEW YORK CITY  MOSUNNY   15   0  51 NW24G36   30.12R WCI  -4
$$

ANZALL-311500-
MARINE OBSERVATIONS

STATION/POSITION TIME  TEMP    WIND        PRES    VSBY  WAVE
                       AIR SEA DIR/SP/G                  HT/PER
                 (UTC) (F)     (DEG/KT/KT) (MB)    (MI)  (FT/S)
BOSTON BUOY      1350   16 40  320/ 33/ 39 1007.4R         9/ 6
BUZZARDS BAY     1300          320/ 40/ 47 1008.1R
NANTUCKET SOUND  NOT AVBL
MASS BAY-STELLWA 1304   16 40  310/ 31/ 37   N/A    1 3/4  9/ 8
ISLE OF SHOALS   1400   11     310/ 32/ 37 1006.8R
S OF BLOCK IS    1308      42                N/A          12/ 7
$$

......................KEY.........................
  SKY/WX - SKY CONDITION/PRESENT WEATHER
  TMP    - TEMPERATURE IN FAHRENHEIT
  DWPT   - DEWPOINT IN FAHRENHEIT
  RH     - RELATIVE HUMIDITY IN PERCENT
  WIND   - DIRECTION AND SPEED IN MPH
  PRES   - MEAN SEA LEVEL PRESSURE IN INCHES OF HG
  WCI    - WIND CHILL INDEX
  VSB    - VISIBILITY IN MILES
  HX     - HEAT INDEX
  TC     - TEMPERATURE IN CELSIUS
  VRB    - VARIABLE WIND DIRECTION
  N/A    - NOT AVAILABLE


USA.gov is the U.S. government's official web portal to all federal, state and local government web resources and services.